Location: Altenst�hlen
(53.5567°N, 8.9425°E)
Time: 09:19:44
(UTC+00:00)

IRS-1A Rocket - Pass Details

Date: 23 October 2019
Orbit: 852 x 931 km, 99.2° (Epoch: 12 November)

Event Time Altitude Azimuth Distance (km) Brightness Sun altitude
Exits shadow 17:47:28 - 147° (SSE) 3,197 6.9 -15.0°
Reaches altitude 10° 17:49:18 10° 144° (SE) 2,479 6.3 -15.3°
Maximum altitude 17:54:41 59° 66° (ENE) 987 4.2 -16.1°
Drops below altitude 10° 18:00:08 10° 349° (NNW) 2,515 6.8 -16.9°
Sets 18:02:34 0° 346° (NNW) 3,465 7.6 -17.2°
